TimeCST,TemperatureF,Dew PointF,Humidity,Sea Level PressureIn,VisibilityMPH,Wind Direction,Wind SpeedMPH,Gust SpeedMPH,PrecipitationIn,Events,Conditions,WindDirDegrees,DateUTC
12:15 AM,41.0,32.0,70,30.20,10.0,NNE,5.8,-,N/A,,Clear,20,2013-01-20 06:15:00
12:35 AM,41.0,32.0,70,30.21,10.0,NNE,8.1,-,N/A,,Clear,20,2013-01-20 06:35:00
12:55 AM,41.0,32.0,70,30.21,10.0,NNE,8.1,-,N/A,,Clear,30,2013-01-20 06:55:00
1:15 AM,41.0,30.2,65,30.21,10.0,NNE,9.2,-,N/A,,Clear,20,2013-01-20 07:15:00
1:35 AM,41.0,30.2,65,30.21,10.0,NE,8.1,-,N/A,,Clear,40,2013-01-20 07:35:00
1:55 AM,41.0,30.2,65,30.22,10.0,NE,8.1,-,N/A,,Clear,40,2013-01-20 07:55:00
2:15 AM,39.2,30.2,70,30.23,10.0,NE,8.1,-,N/A,,Clear,40,2013-01-20 08:15:00
2:35 AM,39.2,30.2,70,30.23,10.0,NNE,8.1,-,N/A,,Clear,30,2013-01-20 08:35:00
2:55 AM,37.4,30.2,75,30.23,10.0,NE,9.2,-,N/A,,Clear,40,2013-01-20 08:55:00
3:15 AM,37.4,28.4,70,30.23,10.0,NNE,8.1,-,N/A,,Clear,30,2013-01-20 09:15:00
3:35 AM,37.4,28.4,70,30.23,10.0,NNE,8.1,-,N/A,,Clear,30,2013-01-20 09:35:00
3:55 AM,37.4,28.4,70,30.23,10.0,NNE,9.2,-,N/A,,Clear,30,2013-01-20 09:55:00
4:15 AM,37.4,28.4,70,30.23,10.0,NNE,8.1,-,N/A,,Clear,30,2013-01-20 10:15:00
4:35 AM,37.4,28.4,70,30.22,10.0,NNE,8.1,-,N/A,,Clear,30,2013-01-20 10:35:00
4:55 AM,37.4,28.4,70,30.23,10.0,NNE,8.1,-,N/A,,Clear,30,2013-01-20 10:55:00
5:15 AM,35.6,26.6,70,30.23,10.0,NE,5.8,-,N/A,,Clear,50,2013-01-20 11:15:00
5:35 AM,35.6,26.6,70,30.23,10.0,NE,6.9,-,N/A,,Clear,40,2013-01-20 11:35:00
5:55 AM,33.8,26.6,75,30.24,10.0,NE,4.6,-,N/A,,Clear,50,2013-01-20 11:55:00
6:15 AM,33.8,26.6,75,30.25,10.0,NE,5.8,-,N/A,,Clear,50,2013-01-20 12:15:00
6:35 AM,32.0,26.6,80,30.25,10.0,NE,3.5,-,N/A,,Clear,40,2013-01-20 12:35:00
6:55 AM,32.0,24.8,75,30.25,10.0,NE,5.8,-,N/A,,Clear,50,2013-01-20 12:55:00
7:15 AM,32.0,24.8,75,30.26,10.0,East,5.8,-,N/A,,Clear,80,2013-01-20 13:15:00
7:35 AM,32.0,24.8,75,30.26,10.0,East,5.8,-,N/A,,Clear,80,2013-01-20 13:35:00
7:55 AM,32.0,26.6,80,30.25,10.0,East,3.5,-,N/A,,Clear,90,2013-01-20 13:55:00
8:35 AM,33.8,28.4,81,30.24,10.0,East,5.8,-,N/A,,Clear,80,2013-01-20 14:35:00
8:55 AM,35.6,28.4,75,30.24,10.0,East,8.1,-,N/A,,Clear,100,2013-01-20 14:55:00
9:15 AM,37.4,30.2,75,30.25,10.0,ESE,10.4,-,N/A,,Clear,110,2013-01-20 15:15:00
9:35 AM,37.4,30.2,75,30.25,10.0,SE,10.4,-,N/A,,Clear,130,2013-01-20 15:35:00
9:55 AM,39.2,28.4,65,30.26,10.0,ESE,10.4,-,N/A,,Clear,110,2013-01-20 15:55:00
10:15 AM,41.0,28.4,61,30.27,10.0,ESE,6.9,-,N/A,,Clear,110,2013-01-20 16:15:00
10:35 AM,42.8,26.6,53,30.27,10.0,East,6.9,-,N/A,,Clear,80,2013-01-20 16:35:00
10:55 AM,42.8,26.6,53,30.26,10.0,ENE,6.9,-,N/A,,Clear,70,2013-01-20 16:55:00
11:15 AM,44.6,28.4,53,30.25,10.0,East,9.2,-,N/A,,Clear,100,2013-01-20 17:15:00
11:35 AM,46.4,28.4,50,30.23,10.0,ESE,4.6,-,N/A,,Clear,110,2013-01-20 17:35:00
11:55 AM,46.4,28.4,50,30.22,10.0,SSE,6.9,-,N/A,,Clear,150,2013-01-20 17:55:00
12:15 PM,46.4,26.6,46,30.20,10.0,SE,3.5,-,N/A,,Clear,140,2013-01-20 18:15:00
12:35 PM,48.2,26.6,43,30.18,10.0,ESE,6.9,-,N/A,,Clear,120,2013-01-20 18:35:00
12:55 PM,50.0,26.6,40,30.17,10.0,ESE,6.9,-,N/A,,Clear,110,2013-01-20 18:55:00
1:15 PM,50.0,28.4,43,30.16,10.0,East,3.5,-,N/A,,Clear,90,2013-01-20 19:15:00
1:35 PM,50.0,28.4,43,30.16,10.0,Calm,Calm,-,N/A,,Clear,0,2013-01-20 19:35:00
1:55 PM,50.0,28.4,43,30.15,10.0,Calm,Calm,-,N/A,,Clear,0,2013-01-20 19:55:00
2:15 PM,51.8,26.6,38,30.15,10.0,Calm,Calm,-,N/A,,Clear,0,2013-01-20 20:15:00
2:35 PM,51.8,28.4,41,30.15,10.0,East,3.5,-,N/A,,Clear,90,2013-01-20 20:35:00
2:55 PM,51.8,28.4,41,30.15,10.0,ENE,3.5,-,N/A,,Clear,70,2013-01-20 20:55:00
3:15 PM,53.6,28.4,38,30.14,10.0,Calm,Calm,-,N/A,,Clear,0,2013-01-20 21:15:00
3:35 PM,51.8,28.4,41,30.15,10.0,NNE,4.6,-,N/A,,Clear,30,2013-01-20 21:35:00
3:55 PM,51.8,26.6,38,30.15,10.0,North,9.2,-,N/A,,Clear,10,2013-01-20 21:55:00
4:15 PM,50.0,26.6,40,30.15,10.0,North,10.4,-,N/A,,Clear,10,2013-01-20 22:15:00
4:55 PM,46.4,24.8,43,30.15,10.0,NNE,8.1,-,N/A,,Clear,20,2013-01-20 22:55:00
5:15 PM,44.6,23.0,43,30.15,10.0,North,10.4,-,N/A,,Clear,10,2013-01-20 23:15:00
5:35 PM,41.0,23.0,49,30.16,10.0,NNE,9.2,-,N/A,,Clear,20,2013-01-20 23:35:00
5:55 PM,41.0,21.2,45,30.17,10.0,NNE,9.2,-,N/A,,Clear,20,2013-01-20 23:55:00
6:15 PM,39.2,21.2,49,30.17,10.0,NNE,9.2,-,N/A,,Clear,20,2013-01-21 00:15:00
6:35 PM,39.2,19.4,45,30.17,10.0,NNE,8.1,-,N/A,,Clear,20,2013-01-21 00:35:00
6:55 PM,37.4,19.4,48,30.18,10.0,NNE,8.1,-,N/A,,Clear,30,2013-01-21 00:55:00
7:15 PM,37.4,19.4,48,30.18,10.0,NNE,6.9,-,N/A,,Clear,20,2013-01-21 01:15:00
7:35 PM,35.6,19.4,52,30.19,10.0,North,9.2,-,N/A,,Clear,10,2013-01-21 01:35:00
7:55 PM,35.6,19.4,52,30.20,10.0,North,8.1,-,N/A,,Scattered Clouds,10,2013-01-21 01:55:00
8:15 PM,35.6,19.4,52,30.20,10.0,North,8.1,-,N/A,,Scattered Clouds,10,2013-01-21 02:15:00
8:35 PM,33.8,19.4,56,30.21,10.0,North,11.5,16.1,N/A,,Clear,10,2013-01-21 02:35:00
8:55 PM,33.8,19.4,56,30.22,10.0,North,10.4,17.3,N/A,,Clear,360,2013-01-21 02:55:00
9:15 PM,32.0,19.4,60,30.23,10.0,North,12.7,16.1,N/A,,Clear,10,2013-01-21 03:15:00
9:35 PM,32.0,19.4,60,30.24,10.0,North,10.4,-,N/A,,Clear,360,2013-01-21 03:35:00
9:55 PM,30.2,21.2,69,30.25,10.0,North,11.5,-,N/A,,Clear,360,2013-01-21 03:55:00
10:15 PM,30.2,21.2,69,30.26,10.0,North,12.7,17.3,N/A,,Clear,360,2013-01-21 04:15:00
10:35 PM,28.4,19.4,69,30.27,10.0,North,16.1,20.7,N/A,,Clear,360,2013-01-21 04:35:00
10:55 PM,28.4,19.4,69,30.28,10.0,North,16.1,20.7,N/A,,Clear,360,2013-01-21 04:55:00
11:15 PM,26.6,17.6,69,30.29,10.0,North,11.5,-,N/A,,Clear,10,2013-01-21 05:15:00
11:35 PM,26.6,17.6,69,30.28,10.0,North,12.7,-,N/A,,Clear,10,2013-01-21 05:35:00
11:55 PM,26.6,17.6,69,30.27,10.0,North,8.1,-,N/A,,Clear,10,2013-01-21 05:55:00